{"data":{"norad_id":49213,"epoch":"2026-05-24T18:43:45.960384Z","epoch_age_seconds":97171,"freshness":"FRESH","line1":"1 49213U 21083AD  26144.78039306  .00000013  00000+0  17191-6 0  9994","line2":"2 49213  87.9177 279.1072 0002307 109.0132 251.1252 13.20770549233729","mean_motion":13.20770549,"eccentricity":0.0002307,"inclination_deg":87.9177,"raan_deg":279.1072,"arg_perigee_deg":109.0132,"mean_anomaly_deg":251.1252,"bstar":1.7191e-7,"rev_number":23372,"period_min":109.02726450785,"perigee_km":1180.0341233507,"apogee_km":1183.5222682221,"semimajor_km":7559.9151957864,"source":"CELESTRAK","updated_at":"2026-05-25T13:38:22.517207Z"}}